Hourly Weather Roundup
Issued by NWS Central Illinois

Home | Current Version | Previous Version | Text Only | Print | Product List | Glossary On
Versions: 1 2 3 4 5 6 7 8 9 10 11 12 13 14 15 16 17 18 19 20 21 22 23 24 25 26 27 28 29 30 31 32 33 34 35 36 37 38 39 40 41 42 43 44 45 46 47 48 49 50
000
NZUS43 KILX 270310
HWRILX

AREA WEATHER ROUNDUP
NATIONAL WEATHER SERVICE, LINCOLN IL
900 PM CST WED NOV 26 2014


CITY           SKY/WX    TMP DP  RH WIND       PRES   REMARKS
BLOOMINGTON    CLOUDY    26  23  88 NE12      30.15R WCI  16
CHAMPAIGN      CLOUDY    28  24  85 N10       30.12R WCI  19
DECATUR        LGT SNOW  29  26  89 N9        30.13R FOG     WCI  20
FLORA          LGT SNOW  32  32 100 N3        30.09R
GALESBURG      LGT SNOW  26  24  93 N15       30.20R WCI  13
JACKSONVILLE   LGT SNOW  31  29  92 N9        30.15R WCI  23
LACON          CLOUDY    26  19  75 NE6       30.20R WCI  19
LAWRENCEVILLE  LGT SNOW  32  31  96 N8        30.08S FOG     WCI  25
LITCHFIELD     LGT SNOW  31  29  93 NE5       30.10R WCI  26
$$


CITY           SKY/WX    TMP DP  RH WIND       PRES   REMARKS
LINCOLN        LGT SNOW  29  27  92 N9        30.16R WCI  21
MACOMB         CLOUDY    28  27  96 N14       30.21R FOG     WCI  16
MATTOON        CLOUDY    30  25  81 N8        30.09R WCI  22
MT CARMEL AP   LGT SNOW  34  32  93 NE6       30.07S WCI  29
OLNEY-NOBLE AP LGT SNOW  32  32 100 NE3       30.08S
PARIS          CLOUDY    31  27  86 N5        30.10R WCI  26
PEORIA         LGT SNOW  29  23  78 N6        30.19R WCI  23
PONTIAC        CLOUDY    28  22  81 N9        30.18R WCI  19
RANTOUL        CLOUDY    29  24  81 N10       30.13R WCI  20
ROBINSON       CLOUDY    32  31  96 NW5       30.10R WCI  27
SPRINGFIELD    LGT SNOW  29  27  92 N10       30.15R FOG     WCI  20
TAYLORVILLE    LGT SNOW  28  28 100 NE7       30.12R WCI  21
$$

...REGIONAL REPORTS...


CITY           SKY/WX    TMP DP  RH WIND       PRES   REMARKS
CHICAGO O`HARE CLOUDY    29  23  78 NW9       30.15R WCI  20
KANKAKEE       CLOUDY   N/A N/A N/A CALM      30.16S
MOLINE         CLOUDY    27  20  75 N5        30.22R WCI  22
MOUNT VERNON   CLOUDY    34  28  80 NE5       30.08R WCI  30
PITTSFIELD     CLOUDY    31  30  96 N8        30.15R WCI  24
QUINCY         LGT SNOW  30  27  88 N14       30.17R FOG     WCI  19
ROCKFORD       CLOUDY    23  18  81 N9        30.22R HAZE    WCI  13
$$


CITY           SKY/WX    TMP DP  RH WIND       PRES   REMARKS
BURLINGTON     CLOUDY    28  25  88 NE13      30.20R FOG     WCI  17
CEDAR RAPIDS   CLOUDY    26  24  92 N8        30.23R FOG     WCI  18
DES MOINES     LGT SNOW  25  21  85 NW16      30.31R FOG     WCI  12
KIRKSVILLE     CLOUDY    31  29  92 N16G22    30.22R FOG     WCI  20
OTTUMWA        LGT SNOW  28  25  88 N9        30.25R FOG     WCI  19
ST LOUIS       CLOUDY    34  31  88 CALM      30.09R FOG
$$


CITY           SKY/WX    TMP DP  RH WIND       PRES   REMARKS
TERRE HAUTE    CLOUDY    32  25  75 N6        30.09R WCI  26
EVANSVILLE     LGT SNOW  34  31  88 NE5       30.06R FOG     WCI  30
INDIANAPOLIS   CLOUDY    28  22  78 NE8       30.07R WCI  20
LAFAYETTE      CLOUDY    26  21  81 N7        30.12R WCI  18
MADISON        MOCLDY    17  14  88 CALM      30.20S FOG
MILWAUKEE      CLOUDY    27  19  72 NW9       30.17R WCI  18
$$





USA.gov is the U.S. government's official web portal to all federal, state and local government web resources and services.